sat.trackr.live / text

‹ back to catalog

HULIANWANG DIGUI-134

NORAD 67242 · 2025-311G

PAYLOAD ACTIVE UNKNOWN

§ Identity

Operator
Country
PRC
Launch date
2025-12-25
Launch site
WSC
Launch vehicle
Mass (kg)
RCS (m²)

External: N2YO · Heavens-Above · Gunter

§ Orbital elements

Epoch: 2026-09-20T22:10:17.183136Z

Period
108.33 min
Inclination
50.0023°
Eccentricity
0.0000189
Mean motion
13.29325464 rev/d
Perigee alt
1,149.2 km
Apogee alt
1,149.5 km
Semi-major
7,527.4 km
B*
5.6254e-5
RAAN
132.4033°
Arg perigee
344.3573°
Mean anomaly
15.7294°
Rev number
3,607

§ Raw data

HULIANWANG DIGUI-1341 67242U 25311G   26263.92380999 -.00000098  00000+0  56254-4 0  99942 67242  50.0023 132.4033 0000189 344.3573  15.7294 13.29325464 36079

JSON: /api/v1/satellites/67242 · /tle

For live sub-satellite position, see the globe view (requires WebGL).

§ Visibility from observer

Set your observer location to see the next 7 days of passes ≥ 10°. The values pass through the URL so the page stays shareable.

No JS? Fill the form by hand. The geolocation button needs JavaScript.